Location: Clatteringshaws Loch
(55.0508°N, 4.2860°W)
Time: 03:07:37
(UTC+00:00)

SR - Visible Passes

Search period start: 20 December 2014 00:00
Search period end: 30 December 2014 00:00
Orbit: 579 x 884 km, 66.7° (Epoch: 18 December)

Date Brightness Start Highest point End Pass type
(mag) Time Alt. Az. Time Alt. Az. Time Alt. Az.
20 Dec ? 04:10:26 16° NNE 04:10:26 16° NNE 04:11:51 10° NE visible
20 Dec ? 05:49:55 23° NNW 05:51:26 26° NNE 05:55:31 10° ENE visible
20 Dec ? 07:29:31 10° NW 07:34:34 59° NE 07:39:10 10° ESE visible
21 Dec ? 05:02:41 23° NNE 05:02:41 23° NNE 05:06:18 10° ENE visible
21 Dec ? 06:42:10 17° NNW 06:45:47 41° NNE 06:50:14 10° ESE visible
22 Dec ? 04:15:28 17° NNE 04:15:28 17° NNE 04:17:11 10° NE visible
22 Dec ? 05:54:57 24° NNW 05:56:51 31° NNE 06:01:06 10° E visible
22 Dec ? 07:34:35 10° NW 07:39:38 89° SW 07:44:13 10° SE visible
23 Dec ? 05:07:45 26° NNE 05:07:50 26° NNE 05:11:53 10° ENE visible
23 Dec ? 06:47:14 17° NW 06:50:58 59° NE 06:55:32 10° ESE visible
24 Dec ? 04:20:34 19° NE 04:20:34 19° NE 04:22:40 10° ENE visible
24 Dec ? 06:00:03 27° NNW 06:02:10 41° NNE 06:06:35 10° ESE visible
24 Dec ? 07:39:41 10° NW 07:44:31 54° SW 07:48:55 10° SSE visible
25 Dec ? 03:33:24 11° NE 03:33:24 11° NE 03:33:32 10° NE visible
25 Dec ? 05:12:53 31° NNE 05:13:14 31° NNE 05:17:27 10° E visible
25 Dec ? 06:52:22 19° NW 06:56:00 89° SW 07:00:34 10° SE visible
26 Dec ? 04:25:45 22° NE 04:25:45 22° NE 04:28:13 10° ENE visible
26 Dec ? 06:05:14 32° NNW 06:07:21 59° NE 06:11:52 10° ESE visible
26 Dec ? 07:44:56 10° NW 07:49:13 31° WSW 07:53:11 10° S visible
27 Dec ? 03:38:38 12° ENE 03:38:38 12° ENE 03:39:00 10° ENE visible
27 Dec ? 05:18:07 40° NNE 05:18:32 41° NNE 05:22:55 10° ESE visible
27 Dec ? 06:57:37 19° NW 07:00:52 54° SW 07:05:15 10° SSE visible
28 Dec ? 04:31:03 26° NE 04:31:03 26° NE 04:33:47 10° E visible
28 Dec ? 06:10:33 39° NW 06:12:21 89° SW 06:16:53 10° SE visible
28 Dec ? 07:50:33 10° WNW 07:53:45 18° WSW 07:56:47 10° SSW visible
29 Dec ? 03:44:01 12° ENE 03:44:01 12° ENE 03:44:32 10° ENE visible
29 Dec ? 05:23:31 58° NNE 05:23:41 59° NE 05:28:11 10° ESE visible
29 Dec ? 07:03:01 19° WNW 07:05:33 31° WSW 07:09:30 10° S visible
